Year,Month,Day,Hour,Minute,Value (Times are PST for temperature in C)
2016,06,20,00,00,11.50
2016,06,20,00,01,11.50
2016,06,20,00,02,11.40
2016,06,20,00,03,11.40
2016,06,20,00,04,11.40
2016,06,20,00,05,11.30
2016,06,20,00,06,11.30
2016,06,20,00,07,11.30
2016,06,20,00,08,11.30
2016,06,20,00,09,11.30
2016,06,20,00,10,11.30
2016,06,20,00,11,11.30
2016,06,20,00,12,11.30
2016,06,20,00,13,11.30
2016,06,20,00,14,11.30
2016,06,20,00,15,11.30
2016,06,20,00,16,11.30
2016,06,20,00,17,11.30
2016,06,20,00,18,11.20
2016,06,20,00,19,11.20
2016,06,20,00,20,11.20
2016,06,20,00,21,11.20
2016,06,20,00,22,11.20
2016,06,20,00,23,11.20
2016,06,20,00,24,11.10
2016,06,20,00,25,11.10
2016,06,20,00,26,11.10
2016,06,20,00,27,11.10
2016,06,20,00,28,11.10
2016,06,20,00,29,11.10
2016,06,20,00,30,11.00
2016,06,20,00,31,11.00
2016,06,20,00,32,11.00
2016,06,20,00,33,11.00
2016,06,20,00,34,11.00
2016,06,20,00,35,11.00
2016,06,20,00,36,11.00
2016,06,20,00,37,10.90
2016,06,20,00,38,10.90
2016,06,20,00,39,10.90
2016,06,20,00,40,10.90
2016,06,20,00,41,10.90
2016,06,20,00,42,10.90
2016,06,20,00,43,10.90
2016,06,20,00,44,10.90
2016,06,20,00,45,10.90
2016,06,20,00,46,10.90
2016,06,20,00,47,10.90
2016,06,20,00,48,10.90
2016,06,20,00,49,10.90
2016,06,20,00,50,10.90
2016,06,20,00,51,10.80
2016,06,20,00,52,10.80
2016,06,20,00,53,10.80
2016,06,20,00,54,10.80
2016,06,20,00,55,10.80
2016,06,20,00,56,10.80
2016,06,20,00,57,10.80
2016,06,20,00,58,10.80
2016,06,20,00,59,10.80
2016,06,20,01,00,10.70
2016,06,20,01,01,10.70
2016,06,20,01,02,10.70
2016,06,20,01,03,10.70
2016,06,20,01,04,10.70
2016,06,20,01,05,10.70
2016,06,20,01,06,10.70
2016,06,20,01,07,10.70
2016,06,20,01,08,10.70
2016,06,20,01,09,10.70
2016,06,20,01,10,10.70
2016,06,20,01,11,10.70
2016,06,20,01,12,10.70
2016,06,20,01,13,10.60
2016,06,20,01,14,10.60
2016,06,20,01,15,10.60
2016,06,20,01,16,10.60
2016,06,20,01,17,10.60
2016,06,20,01,18,10.60
2016,06,20,01,19,10.60
2016,06,20,01,20,10.60
2016,06,20,01,21,10.60
2016,06,20,01,22,10.60
2016,06,20,01,23,10.60
2016,06,20,01,24,10.60
2016,06,20,01,25,10.60
2016,06,20,01,26,10.60
2016,06,20,01,27,10.60
2016,06,20,01,28,10.50
2016,06,20,01,29,10.50
2016,06,20,01,30,10.50
2016,06,20,01,31,10.50
2016,06,20,01,32,10.50
2016,06,20,01,33,10.50
2016,06,20,01,34,10.60
2016,06,20,01,35,10.60
2016,06,20,01,36,10.60
2016,06,20,01,37,10.60
2016,06,20,01,38,10.60
2016,06,20,01,39,10.60
2016,06,20,01,40,10.60
2016,06,20,01,41,10.60
2016,06,20,01,42,10.60
2016,06,20,01,43,10.50
2016,06,20,01,44,10.50
2016,06,20,01,45,10.40
2016,06,20,01,46,10.40
2016,06,20,01,47,10.40
2016,06,20,01,48,10.40
2016,06,20,01,49,10.40
2016,06,20,01,50,10.40
2016,06,20,01,51,10.40
2016,06,20,01,52,10.40
2016,06,20,01,53,10.40
2016,06,20,01,54,10.40
2016,06,20,01,55,10.40
2016,06,20,01,56,10.30
2016,06,20,01,57,10.30
2016,06,20,01,58,10.30
2016,06,20,01,59,10.30
2016,06,20,02,00,10.30
2016,06,20,02,01,10.30
2016,06,20,02,02,10.30
2016,06,20,02,03,10.30
2016,06,20,02,04,10.30
2016,06,20,02,05,10.30
2016,06,20,02,06,10.30
2016,06,20,02,07,10.30
2016,06,20,02,08,10.30
2016,06,20,02,09,10.30
2016,06,20,02,10,10.30
2016,06,20,02,11,10.30
2016,06,20,02,12,10.30
2016,06,20,02,13,10.30
2016,06,20,02,14,10.30
2016,06,20,02,15,10.30
2016,06,20,02,16,10.30
2016,06,20,02,17,10.30
2016,06,20,02,18,10.20
2016,06,20,02,19,10.20
2016,06,20,02,20,10.20
2016,06,20,02,21,10.20
2016,06,20,02,22,10.20
2016,06,20,02,23,10.20
2016,06,20,02,24,10.20
2016,06,20,02,25,10.20
2016,06,20,02,26,10.20
2016,06,20,02,27,10.20
2016,06,20,02,28,10.20
2016,06,20,02,29,10.20
2016,06,20,02,30,10.20
2016,06,20,02,31,10.10
2016,06,20,02,32,10.10
2016,06,20,02,33,10.10
2016,06,20,02,34,10.10
2016,06,20,02,35,10.10
2016,06,20,02,36,10.10
2016,06,20,02,37,10.10
2016,06,20,02,38,10.10
2016,06,20,02,39,10.00
2016,06,20,02,40,10.00
2016,06,20,02,41,10.00
2016,06,20,02,42,10.00
2016,06,20,02,43,10.10
2016,06,20,02,44,10.00
2016,06,20,02,45,10.10
2016,06,20,02,46,10.00
2016,06,20,02,47,10.00
2016,06,20,02,48,10.00
2016,06,20,02,49,10.00
2016,06,20,02,50,10.00
2016,06,20,02,51,10.00
2016,06,20,02,52,10.00
2016,06,20,02,53,10.00
2016,06,20,02,54,10.00
2016,06,20,02,55,10.00
2016,06,20,02,56,10.00
2016,06,20,02,57,9.90
2016,06,20,02,58,9.90
2016,06,20,02,59,9.90
2016,06,20,03,00,10.00
2016,06,20,03,01,10.00
2016,06,20,03,02,10.00
2016,06,20,03,03,10.00
2016,06,20,03,04,10.10
2016,06,20,03,05,10.10
2016,06,20,03,06,10.10
2016,06,20,03,07,10.10
2016,06,20,03,08,10.10
2016,06,20,03,09,10.10
2016,06,20,03,10,10.10
2016,06,20,03,11,10.10
2016,06,20,03,12,10.10
2016,06,20,03,13,10.10
2016,06,20,03,14,10.20
2016,06,20,03,15,10.20
2016,06,20,03,16,10.20
2016,06,20,03,17,10.10
2016,06,20,03,18,10.10
2016,06,20,03,19,10.10
2016,06,20,03,20,10.10
2016,06,20,03,21,10.10
2016,06,20,03,22,10.10
2016,06,20,03,23,10.10
2016,06,20,03,24,10.10
2016,06,20,03,25,10.20
2016,06,20,03,26,10.20
2016,06,20,03,27,10.10
2016,06,20,03,28,10.10
2016,06,20,03,29,10.10
2016,06,20,03,30,10.10
2016,06,20,03,31,10.10
2016,06,20,03,32,10.10
2016,06,20,03,33,10.10
2016,06,20,03,34,10.10
2016,06,20,03,35,10.10
2016,06,20,03,36,10.10
2016,06,20,03,37,10.10
2016,06,20,03,38,10.10
2016,06,20,03,39,10.20
2016,06,20,03,40,10.20
2016,06,20,03,41,10.20
2016,06,20,03,42,10.20
2016,06,20,03,43,10.20
2016,06,20,03,44,10.20
2016,06,20,03,45,10.20
2016,06,20,03,46,10.20
2016,06,20,03,47,10.30
2016,06,20,03,48,10.30
2016,06,20,03,49,10.30
2016,06,20,03,50,10.30
2016,06,20,03,51,10.30
2016,06,20,03,52,10.30
2016,06,20,03,53,10.40
2016,06,20,03,54,10.40
2016,06,20,03,55,10.40
2016,06,20,03,56,10.50
2016,06,20,03,57,10.50
2016,06,20,03,58,10.50
2016,06,20,03,59,10.50
2016,06,20,04,00,10.50
2016,06,20,04,01,10.60
2016,06,20,04,02,10.60
2016,06,20,04,03,10.60
2016,06,20,04,04,10.60
2016,06,20,04,05,10.60
2016,06,20,04,06,10.60
2016,06,20,04,07,10.70
2016,06,20,04,08,10.80
2016,06,20,04,09,10.90
2016,06,20,04,10,11.00
2016,06,20,04,11,11.00
2016,06,20,04,12,11.10
2016,06,20,04,13,11.20
2016,06,20,04,14,11.20
2016,06,20,04,15,11.30
2016,06,20,04,16,11.30
2016,06,20,04,17,11.30
2016,06,20,04,18,11.30
2016,06,20,04,19,11.30
2016,06,20,04,20,11.30
2016,06,20,04,21,11.30
2016,06,20,04,22,11.30
2016,06,20,04,23,11.30
2016,06,20,04,24,11.30
2016,06,20,04,25,11.30
2016,06,20,04,26,11.30
2016,06,20,04,27,11.20
2016,06,20,04,28,11.20
2016,06,20,04,29,11.20
2016,06,20,04,30,11.20
2016,06,20,04,31,11.20
2016,06,20,04,32,11.10
2016,06,20,04,33,11.10
2016,06,20,04,34,11.10
2016,06,20,04,35,11.10
2016,06,20,04,36,11.10
2016,06,20,04,37,11.10
2016,06,20,04,38,11.10
2016,06,20,04,39,11.00
2016,06,20,04,40,11.00
2016,06,20,04,41,11.00
2016,06,20,04,42,11.00
2016,06,20,04,43,11.10
2016,06,20,04,44,11.10
2016,06,20,04,45,11.10
2016,06,20,04,46,11.10
2016,06,20,04,47,11.10
2016,06,20,04,48,11.10
2016,06,20,04,49,11.10
2016,06,20,04,50,11.10
2016,06,20,04,51,11.10
2016,06,20,04,52,11.20
2016,06,20,04,53,11.20
2016,06,20,04,54,11.20
2016,06,20,04,55,11.30
2016,06,20,04,56,11.30
2016,06,20,04,57,11.30
2016,06,20,04,58,11.40
2016,06,20,04,59,11.40
2016,06,20,05,00,11.40
2016,06,20,05,01,11.40
2016,06,20,05,02,11.40
2016,06,20,05,03,11.40
2016,06,20,05,04,11.40
2016,06,20,05,05,11.40
2016,06,20,05,06,11.40
2016,06,20,05,07,11.40
2016,06,20,05,08,11.50
2016,06,20,05,09,11.50
2016,06,20,05,10,11.50
2016,06,20,05,11,11.50
2016,06,20,05,12,11.60
2016,06,20,05,13,11.60
2016,06,20,05,14,11.60
2016,06,20,05,15,11.60
2016,06,20,05,16,11.60
2016,06,20,05,17,11.50
2016,06,20,05,18,11.50
2016,06,20,05,19,11.50
2016,06,20,05,20,11.40
2016,06,20,05,21,11.40
2016,06,20,05,22,11.40
2016,06,20,05,23,11.40
2016,06,20,05,24,11.30
2016,06,20,05,25,11.30
2016,06,20,05,26,11.30
2016,06,20,05,27,11.30
2016,06,20,05,28,11.30
2016,06,20,05,29,11.30
2016,06,20,05,30,11.20
2016,06,20,05,31,11.20
2016,06,20,05,32,11.20
2016,06,20,05,33,11.20
2016,06,20,05,34,11.10
2016,06,20,05,35,11.10
2016,06,20,05,36,11.10
2016,06,20,05,37,11.10
2016,06,20,05,38,11.00
2016,06,20,05,39,11.00
2016,06,20,05,40,11.00
2016,06,20,05,41,10.90
2016,06,20,05,42,10.90
2016,06,20,05,43,10.90
2016,06,20,05,44,10.90
2016,06,20,05,45,10.90
2016,06,20,05,46,10.90
2016,06,20,05,47,10.80
2016,06,20,05,48,10.80
2016,06,20,05,49,10.80
2016,06,20,05,50,10.80
2016,06,20,05,51,10.80
2016,06,20,05,52,10.80
2016,06,20,05,53,10.90
2016,06,20,05,54,10.90
2016,06,20,05,55,10.90
2016,06,20,05,56,11.00
2016,06,20,05,57,11.00
2016,06,20,05,58,11.10
2016,06,20,05,59,11.10
2016,06,20,06,00,11.20
2016,06,20,06,01,11.20
2016,06,20,06,02,11.20
2016,06,20,06,03,11.30
2016,06,20,06,04,11.30
2016,06,20,06,05,11.30
2016,06,20,06,06,11.30
2016,06,20,06,07,11.30
2016,06,20,06,08,11.30
2016,06,20,06,09,11.30
2016,06,20,06,10,11.30
2016,06,20,06,11,11.30
2016,06,20,06,12,11.30
2016,06,20,06,13,11.40
2016,06,20,06,14,11.40
2016,06,20,06,15,11.50
2016,06,20,06,16,11.60
2016,06,20,06,17,11.70
2016,06,20,06,18,11.70
2016,06,20,06,19,11.80
2016,06,20,06,20,11.90
2016,06,20,06,21,11.90
2016,06,20,06,22,12.00
2016,06,20,06,23,12.10
2016,06,20,06,24,12.20
2016,06,20,06,25,12.30
2016,06,20,06,26,12.30
2016,06,20,06,27,12.30
2016,06,20,06,28,12.30
2016,06,20,06,29,12.30
2016,06,20,06,30,12.40
2016,06,20,06,31,12.40
2016,06,20,06,32,12.40
2016,06,20,06,33,12.40
2016,06,20,06,34,12.40
2016,06,20,06,35,12.40
2016,06,20,06,36,12.40
2016,06,20,06,37,12.40
2016,06,20,06,38,12.40
2016,06,20,06,39,12.40
2016,06,20,06,40,12.50
2016,06,20,06,41,12.50
2016,06,20,06,42,12.50
2016,06,20,06,43,12.50
2016,06,20,06,44,12.50
2016,06,20,06,45,12.60
2016,06,20,06,46,12.60
2016,06,20,06,47,12.60
2016,06,20,06,48,12.60
2016,06,20,06,49,12.60
2016,06,20,06,50,12.60
2016,06,20,06,51,12.60
2016,06,20,06,52,12.70
2016,06,20,06,53,12.70
2016,06,20,06,54,12.80
2016,06,20,06,55,12.80
2016,06,20,06,56,12.90
2016,06,20,06,57,12.90
2016,06,20,06,58,12.90
2016,06,20,06,59,12.90
2016,06,20,07,00,12.90
2016,06,20,07,01,12.90
2016,06,20,07,02,13.00
2016,06,20,07,03,13.00
2016,06,20,07,04,13.00
2016,06,20,07,05,13.10
2016,06,20,07,06,13.10
2016,06,20,07,07,13.20
2016,06,20,07,08,13.20
2016,06,20,07,09,13.30
2016,06,20,07,10,13.30
2016,06,20,07,11,13.40
2016,06,20,07,12,13.40
2016,06,20,07,13,13.50
2016,06,20,07,14,13.50
2016,06,20,07,15,13.60
2016,06,20,07,16,13.70
2016,06,20,07,17,13.70
2016,06,20,07,18,13.80
2016,06,20,07,19,13.80
2016,06,20,07,20,13.80
2016,06,20,07,21,13.90
2016,06,20,07,22,13.90
2016,06,20,07,23,14.00
2016,06,20,07,24,14.00
2016,06,20,07,25,14.00
2016,06,20,07,26,14.00
2016,06,20,07,27,14.10
2016,06,20,07,28,14.10
2016,06,20,07,29,14.20
2016,06,20,07,30,14.20
2016,06,20,07,31,14.20
2016,06,20,07,32,14.30
2016,06,20,07,33,14.30
2016,06,20,07,34,14.40
2016,06,20,07,35,14.40
2016,06,20,07,36,14.40
2016,06,20,07,37,14.50
2016,06,20,07,38,14.50
2016,06,20,07,39,14.60
2016,06,20,07,40,14.60
2016,06,20,07,41,14.60
2016,06,20,07,42,14.70
2016,06,20,07,43,14.70
2016,06,20,07,44,14.80
2016,06,20,07,45,14.80
2016,06,20,07,46,14.90
2016,06,20,07,47,14.90
2016,06,20,07,48,15.00
2016,06,20,07,49,15.00
2016,06,20,07,50,15.00
2016,06,20,07,51,15.00
2016,06,20,07,52,15.00
2016,06,20,07,53,15.00
2016,06,20,07,54,15.00
2016,06,20,07,55,15.00
2016,06,20,07,56,15.00
2016,06,20,07,57,15.00
2016,06,20,07,58,15.00
2016,06,20,07,59,15.00
2016,06,20,08,00,15.00
2016,06,20,08,01,15.00
2016,06,20,08,02,15.00
2016,06,20,08,03,15.10
2016,06,20,08,04,15.20
2016,06,20,08,05,15.20
2016,06,20,08,06,15.20
2016,06,20,08,07,15.30
2016,06,20,08,08,15.30
2016,06,20,08,09,15.40
2016,06,20,08,10,15.40
2016,06,20,08,11,15.40
2016,06,20,08,12,15.50
2016,06,20,08,13,15.50
2016,06,20,08,14,15.50
2016,06,20,08,15,15.50
2016,06,20,08,16,15.60
2016,06,20,08,17,15.60
2016,06,20,08,18,15.60
2016,06,20,08,19,15.60
2016,06,20,08,20,15.60
2016,06,20,08,21,15.60
2016,06,20,08,22,15.60
2016,06,20,08,23,15.60
2016,06,20,08,24,15.70
2016,06,20,08,25,15.70
2016,06,20,08,26,15.70
2016,06,20,08,27,15.70
2016,06,20,08,28,15.70
2016,06,20,08,29,15.70
2016,06,20,08,30,15.70
2016,06,20,08,31,15.70
2016,06,20,08,32,15.60
2016,06,20,08,33,15.60
2016,06,20,08,34,15.60
2016,06,20,08,35,15.60
2016,06,20,08,36,15.70
2016,06,20,08,37,15.70
2016,06,20,08,38,15.70
2016,06,20,08,39,15.80
2016,06,20,08,40,15.80
2016,06,20,08,41,15.80
2016,06,20,08,42,15.90
2016,06,20,08,43,15.90
2016,06,20,08,44,15.90
2016,06,20,08,45,15.90
2016,06,20,08,46,15.90
2016,06,20,08,47,15.90
2016,06,20,08,48,15.90
2016,06,20,08,49,15.90
2016,06,20,08,50,15.90
2016,06,20,08,51,15.90
2016,06,20,08,52,15.90
2016,06,20,08,53,15.90
2016,06,20,08,54,15.90
2016,06,20,08,55,16.00
2016,06,20,08,56,16.00
2016,06,20,08,57,16.00
2016,06,20,08,58,16.00
2016,06,20,08,59,16.00
2016,06,20,09,00,16.00
2016,06,20,09,01,16.10
2016,06,20,09,02,16.00
2016,06,20,09,03,16.00
2016,06,20,09,04,16.00
2016,06,20,09,05,16.00
2016,06,20,09,06,16.10
2016,06,20,09,07,16.10
2016,06,20,09,08,16.10
2016,06,20,09,09,16.10
2016,06,20,09,10,16.10
2016,06,20,09,11,16.10
2016,06,20,09,12,16.20
2016,06,20,09,13,16.20
2016,06,20,09,14,16.30
2016,06,20,09,15,16.40
2016,06,20,09,16,16.40
2016,06,20,09,17,16.40
2016,06,20,09,18,16.40
2016,06,20,09,19,16.50
2016,06,20,09,20,16.50
2016,06,20,09,21,16.50
2016,06,20,09,22,16.60
2016,06,20,09,23,16.60
2016,06,20,09,24,16.60
2016,06,20,09,25,16.60
2016,06,20,09,26,16.70
2016,06,20,09,27,16.70
2016,06,20,09,28,16.70
2016,06,20,09,29,16.60
2016,06,20,09,30,16.60
2016,06,20,09,31,16.60
2016,06,20,09,32,16.70
2016,06,20,09,33,16.70
2016,06,20,09,34,16.70
2016,06,20,09,35,16.70
2016,06,20,09,36,16.70
2016,06,20,09,37,16.70
2016,06,20,09,38,16.80
2016,06,20,09,39,16.90
2016,06,20,09,40,16.90
2016,06,20,09,41,16.90
2016,06,20,09,42,17.00
2016,06,20,09,43,17.10
2016,06,20,09,44,17.20
2016,06,20,09,45,17.20
2016,06,20,09,46,17.20
2016,06,20,09,47,17.20
2016,06,20,09,48,17.20
2016,06,20,09,49,17.20
2016,06,20,09,50,17.20
2016,06,20,09,51,17.20
2016,06,20,09,52,17.10
2016,06,20,09,53,17.10
2016,06,20,09,54,17.10
2016,06,20,09,55,17.00
2016,06,20,09,56,17.00
2016,06,20,09,57,16.90
2016,06,20,09,58,16.90
2016,06,20,09,59,16.90
2016,06,20,10,00,16.90
2016,06,20,10,01,16.90
2016,06,20,10,02,17.00
2016,06,20,10,03,17.00
2016,06,20,10,04,17.10
2016,06,20,10,05,17.10
2016,06,20,10,06,17.20
2016,06,20,10,07,17.20
2016,06,20,10,08,17.20
2016,06,20,10,09,17.20
2016,06,20,10,10,17.30
2016,06,20,10,11,17.40
2016,06,20,10,12,17.50
2016,06,20,10,13,17.60
2016,06,20,10,14,17.70
2016,06,20,10,15,17.80
2016,06,20,10,16,17.80
2016,06,20,10,17,17.80
2016,06,20,10,18,17.80
2016,06,20,10,19,17.80
2016,06,20,10,20,17.80
2016,06,20,10,21,17.80
2016,06,20,10,22,17.80
2016,06,20,10,23,17.80
2016,06,20,10,24,17.80
2016,06,20,10,25,17.90
2016,06,20,10,26,17.90
2016,06,20,10,27,17.90
2016,06,20,10,28,17.90
2016,06,20,10,29,17.90
2016,06,20,10,30,18.00
2016,06,20,10,31,18.00
2016,06,20,10,32,18.00
2016,06,20,10,33,18.00
2016,06,20,10,34,18.10
2016,06,20,10,35,18.10
2016,06,20,10,36,18.10
2016,06,20,10,37,18.20
2016,06,20,10,38,18.20
2016,06,20,10,39,18.10
2016,06,20,10,40,18.10
2016,06,20,10,41,18.10
2016,06,20,10,42,18.00
2016,06,20,10,43,17.90
2016,06,20,10,44,18.00
2016,06,20,10,45,18.00
2016,06,20,10,46,18.00
2016,06,20,10,47,18.00
2016,06,20,10,48,18.10
2016,06,20,10,49,18.00
2016,06,20,10,50,18.00
2016,06,20,10,51,18.00
2016,06,20,10,52,17.90
2016,06,20,10,53,17.90
2016,06,20,10,54,18.00
2016,06,20,10,55,17.90
2016,06,20,10,56,17.90
2016,06,20,10,57,17.80
2016,06,20,10,58,17.80
2016,06,20,10,59,17.80
2016,06,20,11,00,17.80
2016,06,20,11,01,17.80
2016,06,20,11,02,17.90
2016,06,20,11,03,17.90
2016,06,20,11,04,18.00
2016,06,20,11,05,18.10
2016,06,20,11,06,18.10
2016,06,20,11,07,18.10
2016,06,20,11,08,18.20
2016,06,20,11,09,18.30
2016,06,20,11,10,18.30
2016,06,20,11,11,18.30
2016,06,20,11,12,18.30
2016,06,20,11,13,18.30
2016,06,20,11,14,18.40
2016,06,20,11,15,18.40
2016,06,20,11,16,18.40
2016,06,20,11,17,18.40
2016,06,20,11,18,18.50
2016,06,20,11,19,18.50
2016,06,20,11,20,18.40
2016,06,20,11,21,18.40
2016,06,20,11,22,18.40
2016,06,20,11,23,18.40
2016,06,20,11,24,18.50
2016,06,20,11,25,18.50
2016,06,20,11,26,18.40
2016,06,20,11,27,18.40
2016,06,20,11,28,18.40
2016,06,20,11,29,18.30
2016,06,20,11,30,18.30
2016,06,20,11,31,18.40
2016,06,20,11,32,18.40
2016,06,20,11,33,18.40
2016,06,20,11,34,18.40
2016,06,20,11,35,18.40
2016,06,20,11,36,18.40
2016,06,20,11,37,18.50
2016,06,20,11,38,18.50
2016,06,20,11,39,18.60
2016,06,20,11,40,18.70
2016,06,20,11,41,18.70
2016,06,20,11,42,18.80
2016,06,20,11,43,18.80
2016,06,20,11,44,18.80
2016,06,20,11,45,18.80
2016,06,20,11,46,18.80
2016,06,20,11,47,18.90
2016,06,20,11,48,18.90
2016,06,20,11,49,18.90
2016,06,20,11,50,19.00
2016,06,20,11,51,19.00
2016,06,20,11,52,19.00
2016,06,20,11,53,19.10
2016,06,20,11,54,19.00
2016,06,20,11,55,19.00
2016,06,20,11,56,19.10
2016,06,20,11,57,19.20
2016,06,20,11,58,19.20
2016,06,20,11,59,19.30
2016,06,20,12,00,19.30
2016,06,20,12,01,19.30
2016,06,20,12,02,19.10
2016,06,20,12,03,19.10
2016,06,20,12,04,19.10
2016,06,20,12,05,19.00
2016,06,20,12,06,19.00
2016,06,20,12,07,19.00
2016,06,20,12,08,19.00
2016,06,20,12,09,19.10
2016,06,20,12,10,19.20
2016,06,20,12,11,19.30
2016,06,20,12,12,19.30
2016,06,20,12,13,19.40
2016,06,20,12,14,19.40
2016,06,20,12,15,19.40
2016,06,20,12,16,19.40
2016,06,20,12,17,19.50
2016,06,20,12,18,19.40
2016,06,20,12,19,19.40
2016,06,20,12,20,19.40
2016,06,20,12,21,19.30
2016,06,20,12,22,19.30
2016,06,20,12,23,19.20
2016,06,20,12,24,19.20
2016,06,20,12,25,19.30
2016,06,20,12,26,19.40
2016,06,20,12,27,19.50
2016,06,20,12,28,19.60
2016,06,20,12,29,19.60
2016,06,20,12,30,19.70
2016,06,20,12,31,19.80
2016,06,20,12,32,19.80
2016,06,20,12,33,19.80
2016,06,20,12,34,19.80
2016,06,20,12,35,19.70
2016,06,20,12,36,19.70
2016,06,20,12,37,19.70
2016,06,20,12,38,19.70
2016,06,20,12,39,19.70
2016,06,20,12,40,19.70
2016,06,20,12,41,19.70
2016,06,20,12,42,19.80
2016,06,20,12,43,19.80
2016,06,20,12,44,19.90
2016,06,20,12,45,19.90
2016,06,20,12,46,20.00
2016,06,20,12,47,20.20
2016,06,20,12,48,20.30
2016,06,20,12,49,20.40
2016,06,20,12,50,20.50
2016,06,20,12,51,20.50
2016,06,20,12,52,20.50
2016,06,20,12,53,20.60
2016,06,20,12,54,20.60
2016,06,20,12,55,20.70
2016,06,20,12,56,20.60
2016,06,20,12,57,20.70
2016,06,20,12,58,20.80
2016,06,20,12,59,20.80
2016,06,20,13,00,20.80
2016,06,20,13,01,20.80
2016,06,20,13,02,20.70
2016,06,20,13,03,20.70
2016,06,20,13,04,20.70
2016,06,20,13,05,20.80
2016,06,20,13,06,20.80
2016,06,20,13,07,20.70
2016,06,20,13,08,20.50
2016,06,20,13,09,20.40
2016,06,20,13,10,20.40
2016,06,20,13,11,20.30
2016,06,20,13,12,20.30
2016,06,20,13,13,20.30
2016,06,20,13,14,20.30
2016,06,20,13,15,20.20
2016,06,20,13,16,20.20
2016,06,20,13,17,20.20
2016,06,20,13,18,20.30
2016,06,20,13,19,20.40
2016,06,20,13,20,20.40
2016,06,20,13,21,20.50
2016,06,20,13,22,20.60
2016,06,20,13,23,20.70
2016,06,20,13,24,20.70
2016,06,20,13,25,20.70
2016,06,20,13,26,20.70
2016,06,20,13,27,20.60
2016,06,20,13,28,20.50
2016,06,20,13,29,20.40
2016,06,20,13,30,20.40
2016,06,20,13,31,20.40
2016,06,20,13,32,20.40
2016,06,20,13,33,20.40
2016,06,20,13,34,20.40
2016,06,20,13,35,20.40
2016,06,20,13,36,20.40
2016,06,20,13,37,20.40
2016,06,20,13,38,20.30
2016,06,20,13,39,20.30
2016,06,20,13,40,20.30
2016,06,20,13,41,20.20
2016,06,20,13,42,20.20
2016,06,20,13,43,20.30
2016,06,20,13,44,20.30
2016,06,20,13,45,20.30
2016,06,20,13,46,20.40
2016,06,20,13,47,20.50
2016,06,20,13,48,20.60
2016,06,20,13,49,20.70
2016,06,20,13,50,20.70
2016,06,20,13,51,20.80
2016,06,20,13,52,20.80
2016,06,20,13,53,20.80
2016,06,20,13,54,20.80
2016,06,20,13,55,20.80
2016,06,20,13,56,20.80
2016,06,20,13,57,20.80
2016,06,20,13,58,20.80
2016,06,20,13,59,20.80
2016,06,20,14,00,20.80
2016,06,20,14,01,20.90
2016,06,20,14,02,20.90
2016,06,20,14,03,20.90
2016,06,20,14,04,20.90
2016,06,20,14,05,21.00
2016,06,20,14,06,21.10
2016,06,20,14,07,21.20
2016,06,20,14,08,21.20
2016,06,20,14,09,21.20
2016,06,20,14,10,21.20
2016,06,20,14,11,21.20
2016,06,20,14,12,21.20
2016,06,20,14,13,21.10
2016,06,20,14,14,21.10
2016,06,20,14,15,21.00
2016,06,20,14,16,20.90
2016,06,20,14,17,21.00
2016,06,20,14,18,21.00
2016,06,20,14,19,20.90
2016,06,20,14,20,20.90
2016,06,20,14,21,21.00
2016,06,20,14,22,21.00
2016,06,20,14,23,21.10
2016,06,20,14,24,21.10
2016,06,20,14,25,21.10
2016,06,20,14,26,21.00
2016,06,20,14,27,20.90
2016,06,20,14,28,20.90
2016,06,20,14,29,20.80
2016,06,20,14,30,20.80
2016,06,20,14,31,20.80
2016,06,20,14,32,20.80
2016,06,20,14,33,20.80
2016,06,20,14,34,20.70
2016,06,20,14,35,20.80
2016,06,20,14,36,20.80
2016,06,20,14,37,20.80
2016,06,20,14,38,20.80
2016,06,20,14,39,20.80
2016,06,20,14,40,20.80
2016,06,20,14,41,20.80
2016,06,20,14,42,20.80
2016,06,20,14,43,20.80
2016,06,20,14,44,20.90
2016,06,20,14,45,20.90
2016,06,20,14,46,20.90
2016,06,20,14,47,20.90
2016,06,20,14,48,20.90
2016,06,20,14,49,21.00
2016,06,20,14,50,21.10
2016,06,20,14,51,21.10
2016,06,20,14,52,21.10
2016,06,20,14,53,21.10
2016,06,20,14,54,21.10
2016,06,20,14,55,21.10
2016,06,20,14,56,21.20
2016,06,20,14,57,21.30
2016,06,20,14,58,21.30
2016,06,20,14,59,21.50
2016,06,20,15,00,21.60
2016,06,20,15,01,21.70
2016,06,20,15,02,21.70
2016,06,20,15,03,21.60
2016,06,20,15,04,21.60
2016,06,20,15,05,21.60
2016,06,20,15,06,21.60
2016,06,20,15,07,21.60
2016,06,20,15,08,21.60
2016,06,20,15,09,21.70
2016,06,20,15,10,21.70
2016,06,20,15,11,21.70
2016,06,20,15,12,21.70
2016,06,20,15,13,21.80
2016,06,20,15,14,21.90
2016,06,20,15,15,21.90
2016,06,20,15,16,21.90
2016,06,20,15,17,22.00
2016,06,20,15,18,22.10
2016,06,20,15,19,22.00
2016,06,20,15,20,22.00
2016,06,20,15,21,22.00
2016,06,20,15,22,22.00
2016,06,20,15,23,22.00
2016,06,20,15,24,22.00
2016,06,20,15,25,22.00
2016,06,20,15,26,21.90
2016,06,20,15,27,21.90
2016,06,20,15,28,21.80
2016,06,20,15,29,21.70
2016,06,20,15,30,21.50
2016,06,20,15,31,21.40
2016,06,20,15,32,21.20
2016,06,20,15,33,21.20
2016,06,20,15,34,21.10
2016,06,20,15,35,21.10
2016,06,20,15,36,21.10
2016,06,20,15,37,21.10
2016,06,20,15,38,21.10
2016,06,20,15,39,21.10
2016,06,20,15,40,21.00
2016,06,20,15,41,21.00
2016,06,20,15,42,20.90
2016,06,20,15,43,20.80
2016,06,20,15,44,20.80
2016,06,20,15,45,20.80
2016,06,20,15,46,20.80
2016,06,20,15,47,20.80
2016,06,20,15,48,20.80
2016,06,20,15,49,20.80
2016,06,20,15,50,20.80
2016,06,20,15,51,20.90
2016,06,20,15,52,20.90
2016,06,20,15,53,20.90
2016,06,20,15,54,21.00
2016,06,20,15,55,21.00
2016,06,20,15,56,21.20
2016,06,20,15,57,21.30
2016,06,20,15,58,21.40
2016,06,20,15,59,21.60
2016,06,20,16,00,21.70
2016,06,20,16,01,21.90
2016,06,20,16,02,22.10
2016,06,20,16,03,22.20
2016,06,20,16,04,22.30
2016,06,20,16,05,22.50
2016,06,20,16,06,22.60
2016,06,20,16,07,22.60
2016,06,20,16,08,22.60
2016,06,20,16,09,22.50
2016,06,20,16,10,22.50
2016,06,20,16,11,22.40
2016,06,20,16,12,22.30
2016,06,20,16,13,22.10
2016,06,20,16,14,22.00
2016,06,20,16,15,21.80
2016,06,20,16,16,21.70
2016,06,20,16,17,21.60
2016,06,20,16,18,21.50
2016,06,20,16,19,21.40
2016,06,20,16,20,21.30
2016,06,20,16,21,21.20
2016,06,20,16,22,21.20
2016,06,20,16,23,21.20
2016,06,20,16,24,21.30
2016,06,20,16,25,21.30
2016,06,20,16,26,21.30
2016,06,20,16,27,21.40
2016,06,20,16,28,21.40
2016,06,20,16,29,21.40
2016,06,20,16,30,21.40
2016,06,20,16,31,21.30
2016,06,20,16,32,21.30
2016,06,20,16,33,21.30
2016,06,20,16,34,21.30
2016,06,20,16,35,21.30
2016,06,20,16,36,21.30
2016,06,20,16,37,21.40
2016,06,20,16,38,21.40
2016,06,20,16,39,21.50
2016,06,20,16,40,21.60
2016,06,20,16,41,21.60
2016,06,20,16,42,21.70
2016,06,20,16,43,21.70
2016,06,20,16,44,21.80
2016,06,20,16,45,21.80
2016,06,20,16,46,21.90
2016,06,20,16,47,21.90
2016,06,20,16,48,21.90
2016,06,20,16,49,21.90
2016,06,20,16,50,21.90
2016,06,20,16,51,21.90
2016,06,20,16,52,21.90
2016,06,20,16,53,22.00
2016,06,20,16,54,22.00
2016,06,20,16,55,22.10
2016,06,20,16,56,22.00
2016,06,20,16,57,21.90
2016,06,20,16,58,21.90
2016,06,20,16,59,21.80
2016,06,20,17,00,21.70
2016,06,20,17,01,21.60
2016,06,20,17,02,21.50
2016,06,20,17,03,21.50
2016,06,20,17,04,21.40
2016,06,20,17,05,21.40
2016,06,20,17,06,21.50
2016,06,20,17,07,21.50
2016,06,20,17,08,21.50
2016,06,20,17,09,21.60
2016,06,20,17,10,21.60
2016,06,20,17,11,21.70
2016,06,20,17,12,21.70
2016,06,20,17,13,21.80
2016,06,20,17,14,21.80
2016,06,20,17,15,21.70
2016,06,20,17,16,21.70
2016,06,20,17,17,21.70
2016,06,20,17,18,21.60
2016,06,20,17,19,21.50